Year,Month,Day,Hour,Minute,Value (Times are PST for windspeed in km/hr)
2008,05,29,00,00,29.90
2008,05,29,00,01,23.90
2008,05,29,00,02,19.30
2008,05,29,00,03,13.90
2008,05,29,00,04,20.80
2008,05,29,00,05,25.50
2008,05,29,00,06,29.10
2008,05,29,00,07,16.10
2008,05,29,00,08,23.80
2008,05,29,00,09,14.90
2008,05,29,00,10,9.00
2008,05,29,00,11,15.90
2008,05,29,00,12,22.70
2008,05,29,00,13,19.10
2008,05,29,00,14,18.50
2008,05,29,00,15,13.00
2008,05,29,00,16,11.30
2008,05,29,00,17,15.20
2008,05,29,00,18,12.00
2008,05,29,00,19,12.60
2008,05,29,00,20,9.30
2008,05,29,00,21,16.70
2008,05,29,00,22,8.90
2008,05,29,00,23,21.50
2008,05,29,00,24,18.70
2008,05,29,00,25,23.70
2008,05,29,00,26,30.00
2008,05,29,00,27,22.20
2008,05,29,00,28,10.60
2008,05,29,00,29,12.30
2008,05,29,00,30,5.90
2008,05,29,00,31,17.00
2008,05,29,00,32,10.40
2008,05,29,00,33,22.50
2008,05,29,00,34,12.20
2008,05,29,00,35,15.00
2008,05,29,00,36,9.60
2008,05,29,00,37,12.60
2008,05,29,00,38,13.30
2008,05,29,00,39,12.20
2008,05,29,00,40,17.50
2008,05,29,00,41,6.00
2008,05,29,00,42,15.70
2008,05,29,00,43,9.70
2008,05,29,00,44,9.00
2008,05,29,00,45,10.30
2008,05,29,00,46,12.80
2008,05,29,00,47,13.10
2008,05,29,00,48,8.30
2008,05,29,00,49,3.10
2008,05,29,00,50,4.60
2008,05,29,00,51,2.30
2008,05,29,00,52,3.90
2008,05,29,00,53,3.10
2008,05,29,00,54,3.60
2008,05,29,00,55,10.00
2008,05,29,00,56,12.70
2008,05,29,00,57,5.10
2008,05,29,00,58,8.90
2008,05,29,00,59,6.40
2008,05,29,01,00,5.20
2008,05,29,01,01,6.60
2008,05,29,01,02,6.50
2008,05,29,01,03,2.40
2008,05,29,01,04,2.40
2008,05,29,01,05,1.20
2008,05,29,01,06,3.90
2008,05,29,01,07,5.00
2008,05,29,01,08,4.80
2008,05,29,01,09,4.90
2008,05,29,01,10,2.70
2008,05,29,01,11,0.00
2008,05,29,01,12,3.90
2008,05,29,01,13,1.20
2008,05,29,01,14,5.80
2008,05,29,01,15,5.70
2008,05,29,01,16,4.10
2008,05,29,01,17,11.00
2008,05,29,01,18,17.30
2008,05,29,01,19,5.10
2008,05,29,01,20,8.10
2008,05,29,01,21,5.60
2008,05,29,01,22,3.50
2008,05,29,01,23,1.40
2008,05,29,01,24,0.20
2008,05,29,01,25,1.40
2008,05,29,01,26,0.70
2008,05,29,01,27,4.50
2008,05,29,01,28,7.90
2008,05,29,01,29,0.90
2008,05,29,01,30,0.20
2008,05,29,01,31,0.50
2008,05,29,01,32,0.70
2008,05,29,01,33,0.10
2008,05,29,01,34,2.40
2008,05,29,01,35,8.10
2008,05,29,01,36,1.70
2008,05,29,01,37,0.70
2008,05,29,01,38,1.20
2008,05,29,01,39,0.00
2008,05,29,01,40,1.40
2008,05,29,01,41,9.20
2008,05,29,01,42,3.50
2008,05,29,01,43,1.90
2008,05,29,01,44,3.50
2008,05,29,01,45,2.20
2008,05,29,01,46,0.90
2008,05,29,01,47,0.30
2008,05,29,01,48,0.00
2008,05,29,01,49,0.10
2008,05,29,01,50,1.30
2008,05,29,01,51,4.50
2008,05,29,01,52,2.10
2008,05,29,01,53,1.10
2008,05,29,01,54,12.70
2008,05,29,01,55,9.50
2008,05,29,01,56,14.30
2008,05,29,01,57,9.30
2008,05,29,01,58,16.10
2008,05,29,01,59,4.10
2008,05,29,02,00,5.70
2008,05,29,02,01,8.70
2008,05,29,02,02,9.50
2008,05,29,02,03,8.10
2008,05,29,02,04,3.80
2008,05,29,02,05,11.90
2008,05,29,02,06,14.90
2008,05,29,02,07,9.20
2008,05,29,02,08,13.30
2008,05,29,02,09,15.70
2008,05,29,02,10,12.40
2008,05,29,02,11,19.10
2008,05,29,02,12,17.00
2008,05,29,02,13,13.70
2008,05,29,02,14,20.60
2008,05,29,02,15,18.20
2008,05,29,02,16,21.00
2008,05,29,02,17,24.10
2008,05,29,02,18,8.40
2008,05,29,02,19,17.70
2008,05,29,02,20,17.50
2008,05,29,02,21,16.80
2008,05,29,02,22,7.20
2008,05,29,02,23,17.00
2008,05,29,02,24,19.80
2008,05,29,02,25,6.80
2008,05,29,02,26,4.80
2008,05,29,02,27,6.30
2008,05,29,02,28,2.20
2008,05,29,02,29,4.90
2008,05,29,02,30,10.50
2008,05,29,02,31,8.20
2008,05,29,02,32,11.20
2008,05,29,02,33,19.30
2008,05,29,02,34,3.50
2008,05,29,02,35,12.20
2008,05,29,02,36,15.50
2008,05,29,02,37,15.20
2008,05,29,02,38,19.80
2008,05,29,02,39,12.70
2008,05,29,02,40,22.80
2008,05,29,02,41,12.00
2008,05,29,02,42,14.00
2008,05,29,02,43,16.00
2008,05,29,02,44,16.40
2008,05,29,02,45,23.80
2008,05,29,02,46,28.70
2008,05,29,02,47,17.60
2008,05,29,02,48,18.60
2008,05,29,02,49,27.80
2008,05,29,02,50,16.50
2008,05,29,02,51,27.10
2008,05,29,02,52,18.70
2008,05,29,02,53,19.40
2008,05,29,02,54,12.90
2008,05,29,02,55,16.60
2008,05,29,02,56,24.30
2008,05,29,02,57,6.40
2008,05,29,02,58,13.80
2008,05,29,02,59,18.30
2008,05,29,03,00,11.60
2008,05,29,03,01,17.90
2008,05,29,03,02,23.90
2008,05,29,03,03,19.20
2008,05,29,03,04,14.20
2008,05,29,03,05,13.10
2008,05,29,03,06,7.70
2008,05,29,03,07,14.70
2008,05,29,03,08,18.30
2008,05,29,03,09,15.70
2008,05,29,03,10,14.70
2008,05,29,03,11,16.80
2008,05,29,03,12,18.10
2008,05,29,03,13,13.80
2008,05,29,03,14,19.80
2008,05,29,03,15,18.30
2008,05,29,03,16,18.90
2008,05,29,03,17,23.70
2008,05,29,03,18,21.40
2008,05,29,03,19,22.00
2008,05,29,03,20,23.40
2008,05,29,03,21,20.70
2008,05,29,03,22,24.40
2008,05,29,03,23,17.10
2008,05,29,03,24,20.50
2008,05,29,03,25,19.00
2008,05,29,03,26,21.20
2008,05,29,03,27,22.60
2008,05,29,03,28,13.90
2008,05,29,03,29,10.20
2008,05,29,03,30,17.90
2008,05,29,03,31,10.30
2008,05,29,03,32,15.00
2008,05,29,03,33,9.60
2008,05,29,03,34,11.60
2008,05,29,03,35,20.80
2008,05,29,03,36,8.50
2008,05,29,03,37,12.80
2008,05,29,03,38,16.40
2008,05,29,03,39,18.00
2008,05,29,03,40,14.70
2008,05,29,03,41,19.10
2008,05,29,03,42,15.20
2008,05,29,03,43,15.70
2008,05,29,03,44,17.40
2008,05,29,03,45,16.20
2008,05,29,03,46,14.60
2008,05,29,03,47,18.50
2008,05,29,03,48,17.00
2008,05,29,03,49,21.50
2008,05,29,03,50,20.40
2008,05,29,03,51,13.80
2008,05,29,03,52,22.10
2008,05,29,03,53,15.80
2008,05,29,03,54,11.80
2008,05,29,03,55,18.70
2008,05,29,03,56,16.90
2008,05,29,03,57,23.20
2008,05,29,03,58,18.40
2008,05,29,03,59,14.90
2008,05,29,04,00,6.50
2008,05,29,04,01,9.10
2008,05,29,04,02,10.10
2008,05,29,04,03,8.50
2008,05,29,04,04,7.90
2008,05,29,04,05,12.00
2008,05,29,04,06,20.70
2008,05,29,04,07,16.80
2008,05,29,04,08,3.90
2008,05,29,04,09,9.20
2008,05,29,04,10,14.30
2008,05,29,04,11,13.70
2008,05,29,04,12,4.10
2008,05,29,04,13,9.20
2008,05,29,04,14,11.20
2008,05,29,04,15,15.40
2008,05,29,04,16,14.30
2008,05,29,04,17,12.30
2008,05,29,04,18,17.50
2008,05,29,04,19,10.90
2008,05,29,04,20,9.30
2008,05,29,04,21,17.20
2008,05,29,04,22,25.70
2008,05,29,04,23,13.90
2008,05,29,04,24,16.10
2008,05,29,04,25,15.90
2008,05,29,04,26,10.20
2008,05,29,04,27,23.20
2008,05,29,04,28,16.60
2008,05,29,04,29,15.40
2008,05,29,04,30,16.20
2008,05,29,04,31,9.50
2008,05,29,04,32,3.50
2008,05,29,04,33,7.90
2008,05,29,04,34,11.10
2008,05,29,04,35,11.70
2008,05,29,04,36,9.00
2008,05,29,04,37,12.70
2008,05,29,04,38,13.10
2008,05,29,04,39,13.60
2008,05,29,04,40,2.50
2008,05,29,04,41,16.70
2008,05,29,04,42,20.50
2008,05,29,04,43,18.20
2008,05,29,04,44,18.70
2008,05,29,04,45,17.30
2008,05,29,04,46,18.60
2008,05,29,04,47,11.90
2008,05,29,04,48,11.20
2008,05,29,04,49,12.40
2008,05,29,04,50,15.70
2008,05,29,04,51,17.80
2008,05,29,04,52,18.90
2008,05,29,04,53,14.10
2008,05,29,04,54,8.20
2008,05,29,04,55,11.60
2008,05,29,04,56,20.00
2008,05,29,04,57,15.50
2008,05,29,04,58,18.40
2008,05,29,04,59,24.70
2008,05,29,05,00,19.90
2008,05,29,05,01,26.60
2008,05,29,05,02,14.90
2008,05,29,05,03,24.20
2008,05,29,05,04,14.60
2008,05,29,05,05,12.20
2008,05,29,05,06,15.60
2008,05,29,05,07,16.50
2008,05,29,05,08,13.00
2008,05,29,05,09,20.30
2008,05,29,05,10,7.70
2008,05,29,05,11,12.50
2008,05,29,05,12,20.60
2008,05,29,05,13,13.70
2008,05,29,05,14,19.00
2008,05,29,05,15,10.30
2008,05,29,05,16,13.30
2008,05,29,05,17,19.00
2008,05,29,05,18,18.70
2008,05,29,05,19,24.40
2008,05,29,05,20,17.80
2008,05,29,05,21,11.90
2008,05,29,05,22,21.20
2008,05,29,05,23,15.20
2008,05,29,05,24,27.10
2008,05,29,05,25,16.80
2008,05,29,05,26,11.50
2008,05,29,05,27,28.80
2008,05,29,05,28,29.50
2008,05,29,05,29,19.40
2008,05,29,05,30,22.90
2008,05,29,05,31,11.30
2008,05,29,05,32,21.00
2008,05,29,05,33,17.20
2008,05,29,05,34,17.50
2008,05,29,05,35,20.70
2008,05,29,05,36,18.00
2008,05,29,05,37,17.60
2008,05,29,05,38,12.90
2008,05,29,05,39,13.90
2008,05,29,05,40,27.00
2008,05,29,05,41,15.30
2008,05,29,05,42,15.80
2008,05,29,05,43,20.30
2008,05,29,05,44,22.40
2008,05,29,05,45,27.00
2008,05,29,05,46,20.80
2008,05,29,05,47,25.30
2008,05,29,05,48,21.70
2008,05,29,05,49,16.70
2008,05,29,05,50,16.20
2008,05,29,05,51,24.80
2008,05,29,05,52,17.80
2008,05,29,05,53,15.20
2008,05,29,05,54,19.50
2008,05,29,05,55,24.10
2008,05,29,05,56,23.50
2008,05,29,05,57,21.00
2008,05,29,05,58,9.30
2008,05,29,05,59,20.80
2008,05,29,06,00,18.60
2008,05,29,06,01,14.60
2008,05,29,06,02,14.50
2008,05,29,06,03,14.50
2008,05,29,06,04,16.20
2008,05,29,06,05,14.50
2008,05,29,06,06,11.80
2008,05,29,06,07,19.90
2008,05,29,06,08,19.30
2008,05,29,06,09,23.60
2008,05,29,06,10,22.40
2008,05,29,06,11,15.20
2008,05,29,06,12,21.00
2008,05,29,06,13,17.50
2008,05,29,06,14,19.10
2008,05,29,06,15,20.20
2008,05,29,06,16,22.70
2008,05,29,06,17,16.50
2008,05,29,06,18,13.80
2008,05,29,06,19,21.90
2008,05,29,06,20,21.20
2008,05,29,06,21,12.90
2008,05,29,06,22,13.60
2008,05,29,06,23,29.00
2008,05,29,06,24,23.90
2008,05,29,06,25,15.90
2008,05,29,06,26,15.40
2008,05,29,06,27,26.60
2008,05,29,06,28,21.70
2008,05,29,06,29,23.90
2008,05,29,06,30,20.00
2008,05,29,06,31,25.40
2008,05,29,06,32,15.20
2008,05,29,06,33,18.50
2008,05,29,06,34,21.30
2008,05,29,06,35,24.30
2008,05,29,06,36,20.50
2008,05,29,06,37,16.90
2008,05,29,06,38,26.40
2008,05,29,06,39,18.10
2008,05,29,06,40,15.40
2008,05,29,06,41,20.80
2008,05,29,06,42,15.50
2008,05,29,06,43,10.50
2008,05,29,06,44,11.40
2008,05,29,06,45,8.80
2008,05,29,06,46,24.10
2008,05,29,06,47,24.60
2008,05,29,06,48,22.10
2008,05,29,06,49,16.80
2008,05,29,06,50,21.80
2008,05,29,06,51,13.40
2008,05,29,06,52,10.20
2008,05,29,06,53,16.20
2008,05,29,06,54,22.90
2008,05,29,06,55,23.00
2008,05,29,06,56,26.90
2008,05,29,06,57,16.60
2008,05,29,06,58,8.50
2008,05,29,06,59,18.50
2008,05,29,07,00,12.30
2008,05,29,07,01,15.80
2008,05,29,07,02,17.00
2008,05,29,07,03,11.80
2008,05,29,07,04,14.10
2008,05,29,07,05,16.80
2008,05,29,07,06,21.70
2008,05,29,07,07,11.70
2008,05,29,07,08,19.30
2008,05,29,07,09,15.90
2008,05,29,07,10,15.30
2008,05,29,07,11,21.20
2008,05,29,07,12,11.10
2008,05,29,07,13,16.30
2008,05,29,07,14,25.50
2008,05,29,07,15,26.40
2008,05,29,07,16,22.20
2008,05,29,07,17,18.50
2008,05,29,07,18,10.00
2008,05,29,07,19,14.20
2008,05,29,07,20,19.60
2008,05,29,07,21,19.10
2008,05,29,07,22,18.10
2008,05,29,07,23,22.30
2008,05,29,07,24,17.00
2008,05,29,07,25,11.70
2008,05,29,07,26,8.40
2008,05,29,07,27,20.80
2008,05,29,07,28,20.80
2008,05,29,07,29,10.10
2008,05,29,07,30,17.80
2008,05,29,07,31,16.70
2008,05,29,07,32,19.10
2008,05,29,07,33,19.60
2008,05,29,07,34,17.50
2008,05,29,07,35,15.70
2008,05,29,07,36,15.90
2008,05,29,07,37,19.70
2008,05,29,07,38,17.90
2008,05,29,07,39,10.50
2008,05,29,07,40,5.80
2008,05,29,07,41,12.70
2008,05,29,07,42,13.50
2008,05,29,07,43,16.30
2008,05,29,07,44,15.90
2008,05,29,07,45,13.30
2008,05,29,07,46,13.90
2008,05,29,07,47,14.20
2008,05,29,07,48,11.30
2008,05,29,07,49,12.30
2008,05,29,07,50,16.70
2008,05,29,07,51,19.00
2008,05,29,07,52,13.70
2008,05,29,07,53,8.60
2008,05,29,07,54,19.50
2008,05,29,07,55,12.60
2008,05,29,07,56,9.70
2008,05,29,07,57,13.40
2008,05,29,07,58,10.80
2008,05,29,07,59,8.30
2008,05,29,08,00,12.50
2008,05,29,08,01,12.50
2008,05,29,08,02,10.90
2008,05,29,08,03,18.10
2008,05,29,08,04,15.40
2008,05,29,08,05,12.30
2008,05,29,08,06,19.40
2008,05,29,08,07,13.60
2008,05,29,08,08,17.00
2008,05,29,08,09,13.10
2008,05,29,08,10,8.00
2008,05,29,08,11,7.70
2008,05,29,08,12,9.90
2008,05,29,08,13,11.30
2008,05,29,08,14,19.90
2008,05,29,08,15,16.10
2008,05,29,08,16,15.80
2008,05,29,08,17,17.30
2008,05,29,08,18,11.80
2008,05,29,08,19,12.60
2008,05,29,08,20,11.80
2008,05,29,08,21,14.20
2008,05,29,08,22,19.40
2008,05,29,08,23,20.00
2008,05,29,08,24,15.20
2008,05,29,08,25,16.00
2008,05,29,08,26,15.00
2008,05,29,08,27,11.90
2008,05,29,08,28,9.80
2008,05,29,08,29,8.00
2008,05,29,08,30,6.00
2008,05,29,08,31,9.40
2008,05,29,08,32,8.00
2008,05,29,08,33,14.60
2008,05,29,08,34,12.60
2008,05,29,08,35,6.10
2008,05,29,08,36,8.90
2008,05,29,08,37,9.70
2008,05,29,08,38,13.20
2008,05,29,08,39,10.90
2008,05,29,08,40,12.70
2008,05,29,08,41,11.20
2008,05,29,08,42,11.20
2008,05,29,08,43,6.70
2008,05,29,08,44,7.30
2008,05,29,08,45,13.90
2008,05,29,08,46,10.10
2008,05,29,08,47,9.50
2008,05,29,08,48,9.90
2008,05,29,08,49,9.60
2008,05,29,08,50,6.40
2008,05,29,08,51,8.50
2008,05,29,08,52,8.10
2008,05,29,08,53,12.00
2008,05,29,08,54,10.60
2008,05,29,08,55,8.00
2008,05,29,08,56,6.20
2008,05,29,08,57,12.40
2008,05,29,08,58,6.90
2008,05,29,08,59,7.20
2008,05,29,09,00,5.80
2008,05,29,09,01,14.10
2008,05,29,09,02,10.20
2008,05,29,09,03,7.20
2008,05,29,09,04,5.10
2008,05,29,09,05,10.00
2008,05,29,09,06,14.40
2008,05,29,09,07,11.30
2008,05,29,09,08,11.90
2008,05,29,09,09,9.30
2008,05,29,09,10,8.50
2008,05,29,09,11,5.10
2008,05,29,09,12,12.20
2008,05,29,09,13,9.10
2008,05,29,09,14,9.90
2008,05,29,09,15,8.00
2008,05,29,09,16,5.60
2008,05,29,09,17,4.60
2008,05,29,09,18,4.30
2008,05,29,09,19,6.00
2008,05,29,09,20,11.40
2008,05,29,09,21,7.90
2008,05,29,09,22,5.70
2008,05,29,09,23,8.10
2008,05,29,09,24,7.00
2008,05,29,09,25,8.70
2008,05,29,09,26,4.40
2008,05,29,09,27,6.70
2008,05,29,09,28,8.90
2008,05,29,09,29,6.90
2008,05,29,09,30,6.30
2008,05,29,09,31,10.10
2008,05,29,09,32,7.60
2008,05,29,09,33,12.30
2008,05,29,09,34,3.90
2008,05,29,09,35,4.20
2008,05,29,09,36,8.30
2008,05,29,09,37,10.90
2008,05,29,09,38,7.90
2008,05,29,09,39,5.20
2008,05,29,09,40,6.00
2008,05,29,09,41,6.90
2008,05,29,09,42,5.40
2008,05,29,09,43,4.40
2008,05,29,09,44,3.10
2008,05,29,09,45,8.40
2008,05,29,09,46,10.40
2008,05,29,09,47,5.70
2008,05,29,09,48,2.20
2008,05,29,09,49,3.20
2008,05,29,09,50,13.70
2008,05,29,09,51,13.90
2008,05,29,09,52,4.50
2008,05,29,09,53,4.30
2008,05,29,09,54,9.20
2008,05,29,09,55,7.40
2008,05,29,09,56,5.60
2008,05,29,09,57,6.90
2008,05,29,09,58,6.00
2008,05,29,09,59,7.50
2008,05,29,10,00,7.60
2008,05,29,10,01,7.30
2008,05,29,10,02,8.30
2008,05,29,10,03,8.90
2008,05,29,10,04,9.20
2008,05,29,10,05,9.90
2008,05,29,10,06,12.30
2008,05,29,10,07,12.50
2008,05,29,10,08,9.80
2008,05,29,10,09,7.60
2008,05,29,10,10,9.60
2008,05,29,10,11,11.70
2008,05,29,10,12,7.50
2008,05,29,10,13,7.50
2008,05,29,10,14,8.80
2008,05,29,10,15,7.20
2008,05,29,10,16,8.20
2008,05,29,10,17,7.90
2008,05,29,10,18,9.30
2008,05,29,10,19,11.50
2008,05,29,10,20,9.90
2008,05,29,10,21,11.50
2008,05,29,10,22,10.50
2008,05,29,10,23,9.80
2008,05,29,10,24,7.70
2008,05,29,10,25,10.50
2008,05,29,10,26,8.70
2008,05,29,10,27,11.40
2008,05,29,10,28,11.00
2008,05,29,10,29,8.50
2008,05,29,10,30,7.70
2008,05,29,10,31,9.70
2008,05,29,10,32,10.20
2008,05,29,10,33,11.80
2008,05,29,10,34,10.90
2008,05,29,10,35,13.60
2008,05,29,10,36,12.20
2008,05,29,10,37,13.30
2008,05,29,10,38,16.90
2008,05,29,10,39,15.70
2008,05,29,10,40,15.50
2008,05,29,10,41,15.30
2008,05,29,10,42,10.90
2008,05,29,10,43,9.10
2008,05,29,10,44,12.40
2008,05,29,10,45,14.60
2008,05,29,10,46,12.40
2008,05,29,10,47,11.80
2008,05,29,10,48,10.30
2008,05,29,10,49,16.30
2008,05,29,10,50,15.40
2008,05,29,10,51,14.30
2008,05,29,10,52,13.70
2008,05,29,10,53,11.20
2008,05,29,10,54,10.10
2008,05,29,10,55,10.10
2008,05,29,10,56,10.10
2008,05,29,10,57,12.10
2008,05,29,10,58,13.00
2008,05,29,10,59,11.80
2008,05,29,11,00,11.20
2008,05,29,11,01,12.70
2008,05,29,11,02,9.00
2008,05,29,11,03,12.10
2008,05,29,11,04,11.40
2008,05,29,11,05,11.40
2008,05,29,11,06,12.20
2008,05,29,11,07,13.20
2008,05,29,11,08,13.70
2008,05,29,11,09,13.60
2008,05,29,11,10,14.20
2008,05,29,11,11,13.80
2008,05,29,11,12,16.50
2008,05,29,11,13,12.20
2008,05,29,11,14,12.40
2008,05,29,11,15,13.50
2008,05,29,11,16,13.00
2008,05,29,11,17,12.10
2008,05,29,11,18,11.10
2008,05,29,11,19,12.20
2008,05,29,11,20,17.10
2008,05,29,11,21,16.10
2008,05,29,11,22,15.40
2008,05,29,11,23,13.00
2008,05,29,11,24,14.50
2008,05,29,11,25,12.60
2008,05,29,11,26,11.40
2008,05,29,11,27,14.70
2008,05,29,11,28,10.90
2008,05,29,11,29,13.80
2008,05,29,11,30,16.70
2008,05,29,11,31,14.60
2008,05,29,11,32,13.60
2008,05,29,11,33,12.10
2008,05,29,11,34,10.90
2008,05,29,11,35,14.50
2008,05,29,11,36,11.10
2008,05,29,11,37,13.00
2008,05,29,11,38,10.00
2008,05,29,11,39,8.60
2008,05,29,11,40,7.40
2008,05,29,11,41,12.40
2008,05,29,11,42,8.20
2008,05,29,11,43,14.10
2008,05,29,11,44,10.10
2008,05,29,11,45,15.50
2008,05,29,11,46,14.30
2008,05,29,11,47,12.40
2008,05,29,11,48,11.00
2008,05,29,11,49,11.60
2008,05,29,11,50,9.70
2008,05,29,11,51,14.30
2008,05,29,11,52,8.60
2008,05,29,11,53,10.20
2008,05,29,11,54,12.30
2008,05,29,11,55,7.40
2008,05,29,11,56,9.50
2008,05,29,11,57,8.00
2008,05,29,11,58,8.70
2008,05,29,11,59,9.20
2008,05,29,12,00,6.90
2008,05,29,12,01,5.80
2008,05,29,12,02,9.30
2008,05,29,12,03,8.30
2008,05,29,12,04,13.30
2008,05,29,12,18,16.30
2008,05,29,12,19,13.40
2008,05,29,12,20,9.70
2008,05,29,12,21,12.10
2008,05,29,12,22,15.60
2008,05,29,12,23,14.00
2008,05,29,12,24,13.10
2008,05,29,12,25,15.80
2008,05,29,12,26,13.50
2008,05,29,12,27,15.60
2008,05,29,12,28,12.60
2008,05,29,12,29,12.90
2008,05,29,12,30,11.00
2008,05,29,12,31,14.10
2008,05,29,12,32,12.20
2008,05,29,12,33,10.90
2008,05,29,12,34,10.00
2008,05,29,12,35,8.80
2008,05,29,12,36,14.70
2008,05,29,12,37,15.10
2008,05,29,12,38,14.20
2008,05,29,12,39,10.50
2008,05,29,12,40,11.70
2008,05,29,12,41,13.70
2008,05,29,12,42,13.00
2008,05,29,12,43,15.40
2008,05,29,12,44,15.40
2008,05,29,12,45,15.60
2008,05,29,12,46,8.30
2008,05,29,12,47,12.10
2008,05,29,12,48,13.60
2008,05,29,12,49,12.70
2008,05,29,12,50,14.20
2008,05,29,12,51,11.90
2008,05,29,12,52,13.70
2008,05,29,12,53,12.20
2008,05,29,12,54,12.70
2008,05,29,12,55,12.60
2008,05,29,12,56,8.40
2008,05,29,12,57,11.20
2008,05,29,12,58,12.90
2008,05,29,12,59,13.30
2008,05,29,13,00,13.90
2008,05,29,13,01,11.40
2008,05,29,13,02,13.80
2008,05,29,13,03,10.10
2008,05,29,13,04,15.10
2008,05,29,13,05,13.00
2008,05,29,13,06,17.80
2008,05,29,13,07,13.20
2008,05,29,13,08,17.70
2008,05,29,13,09,15.40
2008,05,29,13,10,15.30
2008,05,29,13,11,13.20
2008,05,29,13,12,16.90
2008,05,29,13,13,11.90
2008,05,29,13,14,12.20
2008,05,29,13,15,11.70
2008,05,29,13,16,11.20
2008,05,29,13,17,11.30
2008,05,29,13,18,8.70
2008,05,29,13,19,9.50
2008,05,29,13,20,14.30
2008,05,29,13,21,15.00
2008,05,29,13,22,14.30
2008,05,29,13,23,14.90
2008,05,29,13,24,13.40
2008,05,29,13,25,13.40
2008,05,29,13,26,12.00
2008,05,29,13,27,14.70
2008,05,29,13,28,9.30
2008,05,29,13,29,9.90
2008,05,29,13,30,11.20
2008,05,29,13,31,9.40
2008,05,29,13,32,13.40
2008,05,29,13,33,10.60
2008,05,29,13,34,11.10
2008,05,29,13,35,11.30
2008,05,29,13,36,9.90
2008,05,29,13,37,8.70
2008,05,29,13,38,9.90
2008,05,29,13,39,9.70
2008,05,29,13,40,10.40
2008,05,29,13,41,8.60
2008,05,29,13,42,9.30
2008,05,29,13,43,9.50
2008,05,29,13,44,9.30
2008,05,29,13,45,10.60
2008,05,29,13,46,7.40
2008,05,29,13,47,10.60
2008,05,29,13,48,8.30
2008,05,29,13,49,9.80
2008,05,29,13,50,7.70
2008,05,29,13,51,9.70
2008,05,29,13,52,7.70
2008,05,29,13,53,9.70
2008,05,29,13,54,9.60
2008,05,29,13,55,8.00
2008,05,29,13,56,8.70
2008,05,29,13,57,9.00
2008,05,29,13,58,9.10
2008,05,29,13,59,12.90
2008,05,29,14,00,11.70
2008,05,29,14,01,14.30
2008,05,29,14,02,12.10
2008,05,29,14,03,11.90
2008,05,29,14,04,13.10
2008,05,29,14,05,11.20
2008,05,29,14,06,17.50
2008,05,29,14,07,12.20
2008,05,29,14,08,13.20
2008,05,29,14,09,12.60
2008,05,29,14,10,10.40
2008,05,29,14,11,17.30
2008,05,29,14,12,15.00
2008,05,29,14,13,15.80
2008,05,29,14,14,15.20
2008,05,29,14,15,15.20
2008,05,29,14,16,14.20
2008,05,29,14,17,13.70
2008,05,29,14,18,15.50
2008,05,29,14,19,17.50
2008,05,29,14,20,15.90
2008,05,29,14,21,14.10
2008,05,29,14,22,13.70
2008,05,29,14,23,14.00
2008,05,29,14,24,15.20
2008,05,29,14,25,14.60
2008,05,29,14,26,18.50
2008,05,29,14,27,14.40
2008,05,29,14,28,14.40
2008,05,29,14,29,21.00
2008,05,29,14,30,19.10
2008,05,29,14,31,17.90
2008,05,29,14,32,16.30
2008,05,29,14,33,20.20
2008,05,29,14,34,14.00
2008,05,29,14,35,15.40
2008,05,29,14,36,19.70
2008,05,29,14,37,19.40
2008,05,29,14,38,15.90
2008,05,29,14,39,16.80
2008,05,29,14,40,19.40
2008,05,29,14,41,15.00
2008,05,29,14,42,16.50
2008,05,29,14,43,18.50
2008,05,29,14,44,16.50
2008,05,29,14,45,20.30
2008,05,29,14,46,20.20
2008,05,29,14,47,18.80
2008,05,29,14,48,17.80
2008,05,29,14,49,17.70
2008,05,29,14,50,16.20
2008,05,29,14,51,15.10
2008,05,29,14,52,14.20
2008,05,29,14,53,16.10
2008,05,29,14,54,19.00
2008,05,29,14,55,15.60
2008,05,29,14,56,16.80
2008,05,29,14,57,17.30
2008,05,29,14,58,17.10
2008,05,29,14,59,15.30
2008,05,29,15,00,14.70
2008,05,29,15,01,14.80
2008,05,29,15,02,17.30
2008,05,29,15,03,14.60
2008,05,29,15,04,17.70
2008,05,29,15,05,13.30
2008,05,29,15,06,19.60
2008,05,29,15,07,17.50
2008,05,29,15,08,16.40
2008,05,29,15,09,14.80
2008,05,29,15,10,14.80
2008,05,29,15,11,13.30
2008,05,29,15,12,12.80
2008,05,29,15,13,15.10
2008,05,29,15,14,14.20
2008,05,29,15,15,14.10
2008,05,29,15,16,11.10
2008,05,29,15,17,15.90
2008,05,29,15,18,15.10
2008,05,29,15,19,14.00
2008,05,29,15,20,14.60
2008,05,29,15,21,11.00
2008,05,29,15,22,16.00
2008,05,29,15,23,12.70
2008,05,29,15,24,14.20
2008,05,29,15,25,13.70
2008,05,29,15,26,14.20
2008,05,29,15,27,13.30
2008,05,29,15,28,11.70
2008,05,29,15,29,10.40
2008,05,29,15,30,14.20
2008,05,29,15,31,14.90
2008,05,29,15,32,11.20
2008,05,29,15,33,14.60
2008,05,29,15,34,15.90
2008,05,29,15,35,14.80
2008,05,29,15,36,14.00
2008,05,29,15,37,11.90
2008,05,29,15,38,11.40
2008,05,29,15,39,12.50
2008,05,29,15,40,13.50
2008,05,29,15,41,11.30
2008,05,29,15,42,11.80
2008,05,29,15,43,11.90
2008,05,29,15,44,14.30
2008,05,29,15,45,10.80
2008,05,29,15,46,18.90
2008,05,29,15,47,16.70
2008,05,29,15,48,14.50
2008,05,29,15,49,17.80
2008,05,29,15,50,17.60
2008,05,29,15,51,14.80
2008,05,29,15,52,15.50
2008,05,29,15,53,13.40
2008,05,29,15,54,17.70
2008,05,29,15,55,19.00
2008,05,29,15,56,18.90
2008,05,29,15,57,15.80
2008,05,29,15,58,16.70
2008,05,29,15,59,17.50
2008,05,29,16,00,18.60
2008,05,29,16,01,15.90
2008,05,29,16,02,18.20
2008,05,29,16,03,15.10
2008,05,29,16,04,14.50
2008,05,29,16,05,15.60
2008,05,29,16,06,16.50
2008,05,29,16,07,13.40
2008,05,29,16,08,14.10
2008,05,29,16,09,13.00
2008,05,29,16,10,14.40
2008,05,29,16,11,14.50
2008,05,29,16,12,13.80
2008,05,29,16,13,13.50
2008,05,29,16,14,15.00
2008,05,29,16,15,17.50
2008,05,29,16,16,14.90
2008,05,29,16,17,11.80
2008,05,29,16,18,12.20
2008,05,29,16,19,11.60
2008,05,29,16,20,13.30
2008,05,29,16,21,11.90
2008,05,29,16,22,14.90
2008,05,29,16,23,16.00
2008,05,29,16,24,13.50
2008,05,29,16,25,13.50
2008,05,29,16,26,16.00
2008,05,29,16,27,15.90
2008,05,29,16,28,12.30
2008,05,29,16,29,15.00
2008,05,29,16,30,12.60
2008,05,29,16,31,13.30
2008,05,29,16,32,14.70
2008,05,29,16,33,11.70
2008,05,29,16,34,16.50
2008,05,29,16,35,15.00
2008,05,29,16,36,11.00
2008,05,29,16,37,15.00
2008,05,29,16,38,15.00
2008,05,29,16,39,17.70
2008,05,29,16,40,16.20
2008,05,29,16,41,18.10
2008,05,29,16,42,16.80
2008,05,29,16,43,14.50
2008,05,29,16,44,14.00
2008,05,29,16,45,13.60
2008,05,29,16,46,11.50
2008,05,29,16,47,12.80
2008,05,29,16,48,13.00
2008,05,29,16,49,11.50
2008,05,29,16,50,12.80
2008,05,29,16,51,10.10
2008,05,29,16,52,14.00
2008,05,29,16,53,14.90
2008,05,29,16,54,13.20
2008,05,29,16,55,14.50
2008,05,29,16,56,14.70
2008,05,29,16,57,15.40
2008,05,29,16,58,13.30
2008,05,29,16,59,13.10
2008,05,29,17,00,10.60
2008,05,29,17,01,11.50
2008,05,29,17,02,12.60
2008,05,29,17,03,10.60
2008,05,29,17,04,11.10
2008,05,29,17,05,13.10
2008,05,29,17,06,13.20
2008,05,29,17,07,13.20
2008,05,29,17,08,16.20
2008,05,29,17,09,11.60
2008,05,29,17,10,15.40
2008,05,29,17,11,14.00
2008,05,29,17,12,14.30
2008,05,29,17,13,16.90
2008,05,29,17,14,17.80
2008,05,29,17,15,12.70
2008,05,29,17,16,15.80
2008,05,29,17,17,11.60
2008,05,29,17,18,15.40
2008,05,29,17,19,13.70
2008,05,29,17,20,15.50
2008,05,29,17,21,14.00
2008,05,29,17,22,15.60
2008,05,29,17,23,15.40
2008,05,29,17,24,14.40
2008,05,29,17,25,16.20
2008,05,29,17,26,14.80
2008,05,29,17,27,12.80
2008,05,29,17,28,11.80
2008,05,29,17,29,13.80
2008,05,29,17,30,14.00
2008,05,29,17,31,13.70
2008,05,29,17,32,13.00
2008,05,29,17,33,12.00
2008,05,29,17,34,13.40
2008,05,29,17,35,15.80
2008,05,29,17,36,13.20
2008,05,29,17,37,13.10
2008,05,29,17,38,14.50
2008,05,29,17,39,15.80
2008,05,29,17,40,12.20
2008,05,29,17,41,12.30
2008,05,29,17,42,15.20
2008,05,29,17,43,12.80